SENTINEL-3A (41335 NORAD) Tracking and Keplerian Element Data

This shows tracking and keplerian element data for the satellite.

Feedback or suggestion? Click here.




ElementValue
Catalog41335
NameSENTINEL-3A
Epoch Orbit14307
Epoch Day320.15654791
Epoch Year2018
RAAN25.1937
Inclination98.6236
Eccentricity0.0001274
Argument of Perigee93.382
Mean Anonmoly266.7507
Mean Motion14.26738923
Decay Rate-1E-07
L11 41335U 16011A 18320.15654791 -.00000010 00000-0 13756-4 0 9995
L22 41335 98.6236 25.1937 0001274 93.3820 266.7507 14.26738923143071

Live tracking and technical data element details for SENTINEL-3A (NORAD 41335). SENTINEL-3A can be tracked NOW for your location showing map with azimuth and elevation plus other details from your city location.

Track the satellite on the map from your city or location and see movement details for azimuth, elevation, latitude, longitude, range, height, and movement on the map or in text.







IsCatalogInMostPopularTable: catalog: 41335, numindb: 131
Update: records affected: 1



GetName: 41335 SENTINEL-3A

Hit Count: updated at: Fri, 16 Nov 2018 11:46:10 GMT